User: anonymous   Login
Location: Newark
(49.2191°N, 12.6671°E)
Time: 20:07:03
(UTC+00:00)
Language:

A-11 Canister half - Orbit

View from above orbital plane
View from above orbital plane
View from above satellite
View from above satellite

Ground track
Ground track

The orbit data is extracted from the following two-line orbital elements,

1    51U 60009C   20021.24941494 -.00000158 +00000-0 -69401-3 0  9992
2    51 047.2136 085.9214 0104494 083.7244 277.5434 12.18271317646023
Epoch (UTC): 21 January 2020 05:59:09
Eccentricity: 0.0104494
inclination: 47.2136°
perigee height: 1517 km
apogee height: 1683 km
right ascension of ascending node: 85.9214°
argument of perigee: 83.7244°
revolutions per day: 12.18271317
mean anomaly at epoch: 277.5434°
orbit number at epoch: 64602

The dashed part of the orbit path shows where the satellite is in the earth's shadow,  

DLR